| time (UTC) | temp C | wind direction | speed KPH | gust KPH | rain 1hr cm | rain 24hr cm | rain mn cm | humidity % | barometer mb |
| 20260503193119 | 27 | 250 | 3.2 | 0.0 | 0.00 | 0.00 | 0.00 | 39 | 1007.4 |
| 20260503190112 | 26 | 360 | 1.6 | 0.0 | 0.00 | 0.00 | 0.00 | 38 | 1007.8 |
| 20260503183124 | 25 | 338 | 1.6 | 0.0 | 0.00 | 0.00 | 0.00 | 42 | 1008.0 |
| 20260503180128 | 22 | 299 | 4.8 | 0.0 | 0.00 | 0.00 | 0.00 | 49 | 1008.4 |
| 20260503173128 | 21 | 273 | 3.2 | 0.0 | 0.00 | 0.00 | 0.00 | 55 | 1008.5 |
| 20260503170121 | 20 | 345 | 3.2 | 0.0 | 0.00 | 0.00 | 0.00 | 59 | 1008.6 |
| 20260503160139 | 17 | 30 | 1.6 | 0.0 | 0.00 | 0.00 | 0.00 | 68 | 1008.9 |
| 20260503150140 | 12 | 135 | 0.0 | 0.0 | 0.00 | 0.00 | 0.00 | 92 | 1009.0 |
| 20260503140132 | 11 | 135 | 0.0 | 0.0 | 0.00 | 0.00 | 0.00 | 89 | 1008.8 |
| 20260503130115 | 10 | 135 | 0.0 | 0.0 | 0.00 | 0.00 | 0.00 | 88 | 1008.4 |
| 20260503120118 | 11 | 135 | 0.0 | 0.0 | 0.00 | 0.00 | 0.00 | 87 | 1008.8 |
| 20260503110122 | 12 | 135 | 0.0 | 0.0 | 0.00 | 0.00 | 0.00 | 86 | 1008.9 |
| 20260503100135 | 12 | 135 | 0.0 | 0.0 | 0.00 | 0.00 | 0.00 | 85 | 1009.0 |
| 20260503090131 | 13 | 135 | 0.0 | 0.0 | 0.00 | 0.00 | 0.00 | 84 | 1009.3 |
| 20260503080114 | 14 | 135 | 0.0 | 0.0 | 0.00 | 0.00 | 0.00 | 81 | 1009.3 |
| 20260503070117 | 15 | 135 | 0.0 | 0.0 | 0.00 | 0.00 | 0.05 | 77 | 1009.4 |
| 20260503060115 | 16 | 135 | 0.0 | 0.0 | 0.00 | 0.00 | 0.05 | 75 | 1009.4 |
| 20260503053119 | 16 | 60 | 0.0 | 0.0 | 0.00 | 0.00 | 0.05 | 73 | 1009.2 |
| 20260503050110 | 17 | 60 | 0.0 | 0.0 | 0.00 | 0.00 | 0.05 | 71 | 1009.7 |
| 20260503043118 | 17 | 182 | 0.0 | 0.0 | 0.00 | 0.00 | 0.05 | 69 | 1009.7 |
| 20260503040126 | 18 | 182 | 0.0 | 0.0 | 0.00 | 0.00 | 0.05 | 67 | 1009.4 |
| 20260503033113 | 18 | 182 | 0.0 | 0.0 | 0.00 | 0.00 | 0.05 | 64 | 1009.4 |
| 20260503030158 | 18 | 188 | 4.8 | 0.0 | 0.00 | 0.00 | 0.05 | 63 | 1009.1 |
| 20260503023118 | 20 | 213 | 11.3 | 0.0 | 0.00 | 0.00 | 0.05 | 59 | 1008.8 |
| 20260503020122 | 22 | 188 | 4.8 | 0.0 | 0.00 | 0.00 | 0.05 | 51 | 1008.1 |
| 20260503013135 | 22 | 186 | 1.6 | 0.0 | 0.00 | 0.00 | 0.05 | 51 | 1008.0 |
| 20260503010127 | 22 | 275 | 0.0 | 0.0 | 0.00 | 0.00 | 0.05 | 51 | 1008.0 |
| 20260503003203 | 22 | 255 | 0.0 | 0.0 | 0.00 | 0.00 | 0.05 | 53 | 1007.9 |
| 20260503000133 | 22 | 273 | 3.2 | 0.0 | 0.00 | 0.00 | 0.05 | 51 | 1008.2 |
| 20260502233136 | 22 | 261 | 1.6 | 0.0 | 0.00 | 0.00 | 0.05 | 50 | 1008.4 |
| 20260502230128 | 21 | 298 | 1.6 | 0.0 | 0.00 | 0.00 | 0.05 | 50 | 1008.9 |
| 20260502223127 | 20 | 11 | 1.6 | 0.0 | 0.00 | 0.00 | 0.05 | 53 | 1009.4 |
| 20260502220121 | 20 | 78 | 1.6 | 0.0 | 0.00 | 0.00 | 0.05 | 55 | 1009.9 |
| 20260502213126 | 18 | 261 | 3.2 | 0.0 | 0.00 | 0.00 | 0.05 | 57 | 1010.2 |
| 20260502210110 | 18 | 331 | 4.8 | 0.0 | 0.00 | 0.00 | 0.05 | 57 | 1010.7 |
| 20260502203113 | 17 | 19 | 3.2 | 0.0 | 0.00 | 0.00 | 0.05 | 60 | 1011.0 |
| 20260502200140 | 17 | 45 | 4.8 | 0.0 | 0.00 | 0.00 | 0.05 | 61 | 1011.3 |